Flag for Germany Weather past 2 weeks in Neuwied, Rhineland-Palatinate, Germany

Now
39 °F

Chilly.


Feels Like: 31 °F
Forecast: 43 / 50 °F
Wind: 15 mph from Southwest

Location: Buechel

Current Time: Dec 21, 2014 at 7:13:26 PM

Latest Report: Dec 21, 2014 at 6:20 PM


Visibility: 2 mi

Pressure: 30.30 "Hg

Humidity: 93%

Dew point: 37 °F

Location of NeuwiedLocation

Historic Weather in Neuwied — Graph

°F

Neuwied temperature yesterday

Maximum temperature yesterday: 39 °F (at 2:20 PM)
Minimum temperature yesterday: 34 °F (at 2:20 AM)
Average temperature yesterday: 37 °F

Past Weeks' High & Low Weather Summary

 TemperatureHumidityPressure
High50 °F (Dec 18, 12:20 PM)100% (Dec 6, 5:20 PM)30.42 "Hg (Dec 6, 5:20 PM)
Low28 °F (Dec 15, 5:20 AM)81% (Dec 14, 12:20 PM)29.50 "Hg (Dec 12, 3:20 PM)
Average37 °F94%29.99 "Hg
* Reported Dec 6 5:20 PM — Dec 21 5:20 PM, Neuwied, Weather by CustomWeather, © 2014

Note: Actual official high and low records may vary slightly from our data, if they occured in-between our weather recording intervals... More about our weather records

Advertising

Neuwied weather history for previous 24 hours

 ConditionsComfort  
Time TempWeatherWind HumidityBarometerVisibility
5:20 PM
Dec 21
39 °FChilly.15 mph93%30.30 "Hg4 mi
4:20 PM39 °FChilly.15 mph93%30.33 "Hg5 mi
3:20 PM39 °FChilly.13 mph93%30.33 "Hg4 mi
2:20 PM39 °FChilly.13 mph87%30.36 "Hg4 mi
1:20 PM39 °FChilly.13 mph87%30.39 "Hg4 mi
12:20 PM37 °FChilly.14 mph93%30.39 "Hg4 mi
11:20 AM37 °FChilly.13 mph93%30.42 "Hg4 mi
10:20 AM36 °FChilly.12 mph100%30.42 "Hg4 mi
9:20 AM36 °FChilly.13 mph93%30.42 "Hg4 mi
8:20 AM36 °FChilly.8 mph93%30.42 "Hg3 mi
7:20 AM36 °FChilly.10 mph93%30.39 "Hg4 mi
6:20 AM36 °FChilly.9 mph93%30.42 "Hg5 mi
5:20 AM37 °FChilly.9 mph87%30.39 "Hg5 mi
4:20 AM37 °FChilly.9 mph87%30.39 "Hg4 mi
3:20 AM37 °FChilly.8 mph87%30.39 "Hg5 mi
2:20 AM36 °FChilly.7 mph93%30.36 "Hg5 mi
1:20 AM37 °FChilly.8 mph87%30.36 "Hg5 mi
12:20 AM37 °FChilly.8 mph87%30.33 "Hg6 mi
11:20 PM
Dec 20
39 °FChilly.12 mph81%30.33 "Hg6 mi
10:20 PM39 °FChilly.9 mph81%30.30 "Hg6 mi
9:20 PM39 °FChilly.12 mph81%30.27 "Hg6 mi
8:20 PM39 °FChilly.16 mph81%30.21 "Hg6 mi
7:20 PM39 °FChilly.14 mph81%30.21 "Hg6 mi
Weather by CustomWeather, © 2014

See weather overviewHow to use our weather pages